TimeAKST,TemperatureF,Dew PointF,Humidity,Sea Level PressureIn,VisibilityMPH,Wind Direction,Wind SpeedMPH,Gust SpeedMPH,PrecipitationIn,Events,Conditions,WindDirDegrees,DateUTC
12:16 AM,-2.2,-7.6,78,29.43,10.0,SW,8.1,-,N/A,,Clear,220,2012-12-18 09:16:00
12:36 AM,1.4,-7.6,66,29.42,10.0,WSW,5.8,-,N/A,,Clear,250,2012-12-18 09:36:00
12:56 AM,1.4,-7.6,66,29.42,10.0,SW,5.8,-,N/A,,Clear,230,2012-12-18 09:56:00
1:16 AM,1.4,-7.6,66,29.42,10.0,WSW,5.8,-,N/A,,Clear,240,2012-12-18 10:16:00
1:36 AM,1.4,-7.6,66,29.42,10.0,WSW,5.8,-,N/A,,Clear,240,2012-12-18 10:36:00
1:56 AM,3.2,-9.4,56,29.41,10.0,SW,6.9,-,N/A,,Clear,230,2012-12-18 10:56:00
2:16 AM,3.2,-9.4,56,29.41,10.0,SW,4.6,-,N/A,,Clear,220,2012-12-18 11:16:00
2:36 AM,-0.4,-7.6,72,29.40,10.0,WSW,4.6,-,N/A,,Clear,250,2012-12-18 11:36:00
3:16 AM,-2.2,-9.4,71,29.40,10.0,South,3.5,-,N/A,,Clear,190,2012-12-18 12:16:00
3:36 AM,-5.8,-9.4,84,29.39,10.0,WSW,5.8,-,N/A,,Clear,250,2012-12-18 12:36:00
3:56 AM,-5.8,-11.2,77,29.39,10.0,WSW,4.6,-,N/A,,Clear,240,2012-12-18 12:56:00
4:16 AM,-7.6,-11.2,84,29.38,10.0,SSW,4.6,-,N/A,,Clear,210,2012-12-18 13:16:00
4:36 AM,-7.6,-11.2,84,29.38,10.0,WSW,4.6,-,N/A,,Clear,240,2012-12-18 13:36:00
4:56 AM,-7.6,-13.0,77,29.38,10.0,Calm,Calm,-,N/A,,Clear,0,2012-12-18 13:56:00
5:16 AM,-9.4,-14.8,77,29.38,10.0,Calm,Calm,-,N/A,,Clear,0,2012-12-18 14:16:00
5:36 AM,-11.2,-14.8,84,29.37,10.0,WSW,5.8,-,N/A,,Clear,240,2012-12-18 14:36:00
5:56 AM,-7.6,-11.2,84,29.37,10.0,WSW,3.5,-,N/A,,Clear,250,2012-12-18 14:56:00
6:16 AM,-7.6,-11.2,84,29.37,10.0,SSW,3.5,-,N/A,,Clear,200,2012-12-18 15:16:00
6:36 AM,-9.4,-14.8,77,29.37,10.0,Calm,Calm,-,N/A,,Clear,0,2012-12-18 15:36:00
6:56 AM,-7.6,-11.2,84,29.37,10.0,West,4.6,-,N/A,,Clear,260,2012-12-18 15:56:00
7:16 AM,-9.4,-14.8,77,29.37,10.0,Calm,Calm,-,N/A,,Clear,0,2012-12-18 16:16:00
7:36 AM,-9.4,-11.2,92,29.37,10.0,SW,4.6,-,N/A,,Clear,220,2012-12-18 16:36:00
7:56 AM,-7.6,-13.0,77,29.37,10.0,WSW,3.5,-,N/A,,Clear,250,2012-12-18 16:56:00
8:16 AM,-9.4,-13.0,84,29.38,10.0,WSW,3.5,-,N/A,,Clear,240,2012-12-18 17:16:00
8:36 AM,-9.4,-11.2,92,29.37,10.0,SSW,4.6,-,N/A,,Clear,200,2012-12-18 17:36:00
8:56 AM,-9.4,-11.2,92,29.37,10.0,SW,5.8,-,N/A,,Clear,230,2012-12-18 17:56:00
9:16 AM,-7.6,-11.2,84,29.37,10.0,Calm,Calm,-,N/A,,Clear,0,2012-12-18 18:16:00
9:36 AM,-7.6,-11.2,84,29.37,10.0,SSW,3.5,-,N/A,,Clear,210,2012-12-18 18:36:00
9:56 AM,-9.4,-14.8,77,29.38,10.0,Calm,Calm,-,N/A,,Clear,0,2012-12-18 18:56:00
10:16 AM,-9.4,-11.2,92,29.38,10.0,Calm,Calm,-,N/A,,Clear,0,2012-12-18 19:16:00
10:36 AM,-9.4,-14.8,77,29.38,10.0,Calm,Calm,-,N/A,,Clear,0,2012-12-18 19:36:00
10:56 AM,-9.4,-14.8,77,29.38,10.0,Calm,Calm,-,N/A,,Partly Cloudy,0,2012-12-18 19:56:00
11:16 AM,-9.4,-13.0,84,29.38,10.0,Calm,Calm,-,N/A,,Partly Cloudy,0,2012-12-18 20:16:00
11:36 AM,-9.4,-14.8,77,29.38,10.0,SSE,3.5,-,N/A,,Scattered Clouds,160,2012-12-18 20:36:00
12:16 PM,-7.6,-11.2,84,29.38,10.0,Calm,Calm,-,N/A,,Partly Cloudy,0,2012-12-18 21:16:00
12:36 PM,-7.6,-11.2,84,29.39,10.0,Calm,Calm,-,N/A,,Mostly Cloudy,0,2012-12-18 21:36:00
12:56 PM,-5.8,-9.4,84,29.39,10.0,Calm,Calm,-,N/A,,Mostly Cloudy,0,2012-12-18 21:56:00
1:16 PM,-5.8,-11.2,77,29.39,10.0,Calm,Calm,-,N/A,,Mostly Cloudy,0,2012-12-18 22:16:00
1:36 PM,-5.8,-9.4,84,29.39,10.0,Calm,Calm,-,N/A,,Mostly Cloudy,0,2012-12-18 22:36:00
1:56 PM,-5.8,-9.4,84,29.39,10.0,Calm,Calm,-,N/A,,Overcast,0,2012-12-18 22:56:00
2:16 PM,-5.8,-9.4,84,29.39,10.0,Calm,Calm,-,N/A,,Overcast,0,2012-12-18 23:16:00
2:36 PM,-5.8,-9.4,84,29.39,10.0,Calm,Calm,-,N/A,,Overcast,0,2012-12-18 23:36:00
2:56 PM,-5.8,-9.4,84,29.39,10.0,Calm,Calm,-,N/A,,Overcast,0,2012-12-18 23:56:00
3:16 PM,-5.8,-9.4,84,29.39,10.0,Calm,Calm,-,N/A,,Partly Cloudy,0,2012-12-19 00:16:00
3:36 PM,-5.8,-9.4,84,29.39,10.0,Calm,Calm,-,N/A,,Mostly Cloudy,0,2012-12-19 00:36:00
3:56 PM,-5.8,-9.4,84,29.40,10.0,Calm,Calm,-,N/A,,Mostly Cloudy,0,2012-12-19 00:56:00
4:16 PM,-5.8,-9.4,84,29.40,10.0,Calm,Calm,-,N/A,,Overcast,0,2012-12-19 01:16:00
4:36 PM,-5.8,-9.4,84,29.41,10.0,Calm,Calm,-,N/A,,Mostly Cloudy,0,2012-12-19 01:36:00
4:56 PM,-5.8,-9.4,84,29.41,10.0,Calm,Calm,-,N/A,,Mostly Cloudy,0,2012-12-19 01:56:00
5:16 PM,-7.6,-11.2,84,29.42,10.0,Calm,Calm,-,N/A,,Partly Cloudy,0,2012-12-19 02:16:00
5:36 PM,-7.6,-11.2,84,29.43,10.0,North,5.8,-,N/A,,Clear,10,2012-12-19 02:36:00
5:56 PM,-9.4,-14.8,77,29.44,10.0,NNE,4.6,-,N/A,,Clear,20,2012-12-19 02:56:00
6:16 PM,-9.4,-14.8,77,29.46,10.0,Calm,Calm,-,N/A,,Clear,0,2012-12-19 03:16:00
6:36 PM,-11.2,-16.6,77,29.47,10.0,Calm,Calm,-,N/A,,Clear,0,2012-12-19 03:36:00
6:56 PM,-11.2,-16.6,77,29.47,10.0,NNE,6.9,-,N/A,,Clear,20,2012-12-19 03:56:00
7:16 PM,-11.2,-16.6,77,29.48,10.0,North,9.2,-,N/A,,Partly Cloudy,350,2012-12-19 04:16:00
7:36 PM,-11.2,-18.4,70,29.49,10.0,North,15.0,23.0,N/A,,Scattered Clouds,360,2012-12-19 04:36:00
7:56 PM,-14.8,-18.4,84,29.50,10.0,North,11.5,20.7,N/A,,Clear,360,2012-12-19 04:56:00
8:16 PM,-14.8,-18.4,84,29.51,10.0,North,15.0,24.2,N/A,,Clear,360,2012-12-19 05:16:00
8:36 PM,-14.8,-18.4,84,29.52,10.0,North,13.8,17.3,N/A,,Clear,360,2012-12-19 05:36:00
8:56 PM,-14.8,-18.4,84,29.53,10.0,North,13.8,21.9,N/A,,Clear,360,2012-12-19 05:56:00
9:16 PM,-14.8,-18.4,84,29.54,10.0,North,16.1,23.0,N/A,,Partly Cloudy,360,2012-12-19 06:16:00
9:36 PM,-13.0,-18.4,77,29.55,10.0,North,15.0,23.0,N/A,,Partly Cloudy,10,2012-12-19 06:36:00
9:56 PM,-13.0,-18.4,77,29.57,7.0,North,13.8,24.2,N/A,,Clear,360,2012-12-19 06:56:00
10:16 PM,-14.8,-18.4,84,29.58,5.0,NNE,19.6,26.5,N/A,,Clear,20,2012-12-19 07:16:00
10:36 PM,-14.8,-18.4,84,29.59,5.0,NNE,17.3,26.5,N/A,,Clear,20,2012-12-19 07:36:00
10:56 PM,-14.8,-18.4,84,29.60,7.0,NNE,15.0,24.2,N/A,,Clear,20,2012-12-19 07:56:00
11:16 PM,-14.8,-18.4,84,29.62,5.0,NNE,17.3,25.3,N/A,,Clear,20,2012-12-19 08:16:00
11:36 PM,-14.8,-18.4,84,29.64,8.0,NNE,12.7,23.0,N/A,,Clear,20,2012-12-19 08:36:00
11:56 PM,-14.8,-18.4,84,29.65,5.0,North,15.0,20.7,N/A,,Clear,10,2012-12-19 08:56:00